Location: ????????
(38.4362°N, 22.8767°E)
Time: 12:34:33
(UTC+00:00)

ATLAS 5 CENTAUR R/B - Pass Details

Date: 23 April 2024
Orbit: 255 x 11849 km, 20.2° (Epoch: 17 May)

Event Time Altitude Azimuth Distance (km) Brightness Sun altitude
Rises 01:26:02 0° 264° (W) 12,306 7.2 -24.0°
Enters shadow 01:32:02 - 262° (W) 10,931 6.9 -23.1°
Exits shadow 01:55:32 24° 230° (SW) 4,226 4.6 -19.4°
Maximum altitude 01:58:58 27° 211° (SSW) 3,299 4.2 -18.9°
Drops below altitude 10° 02:05:09 10° 154° (SSE) 2,868 4.4 -17.9°
Sets 02:07:14 0° 140° (SE) 3,282 4.9 -17.5°
